Location: Lamy Ridge Observatory
(35.5010°N, 105.8759°W)
Time: 10:24:08
(UTC-06:00)

BlueWalker 3 - Visible Passes

Search period start: 08 September 2024 00:00
Search period end: 18 September 2024 00:00
Orbit: 476 x 487 km, 53.2° (Epoch: 07 September)

Date Brightness Start Highest point End Pass type
(mag) Time Alt. Az. Time Alt. Az. Time Alt. Az.
08 Sep 4.2 21:04:51 10° N 21:06:43 14° NNE 21:06:43 14° NNE visible
09 Sep 4.1 20:37:36 10° N 20:39:28 13° NNE 20:40:18 12° NE visible
09 Sep 5.2 22:14:16 10° NW 22:14:33 12° NW 22:14:33 12° NW visible
10 Sep 4.2 20:10:22 10° N 20:11:58 12° NNE 20:13:33 10° NE visible
10 Sep 4.4 21:46:51 10° NW 21:48:09 20° NW 21:48:09 20° NW visible
11 Sep 4.2 19:43:10 10° N 19:44:26 11° NNE 19:45:42 10° NE visible
11 Sep 3.2 21:19:23 10° NW 21:21:47 36° NNW 21:21:47 36° NNW visible
12 Sep 2.1 20:51:54 10° NW 20:55:27 54° NNE 20:55:27 54° NNE visible
13 Sep 2.2 20:24:23 10° NW 20:28:01 48° NE 20:29:10 34° E visible
14 Sep 2.4 19:56:51 10° NNW 20:00:25 42° NE 20:02:58 17° ESE visible
14 Sep 4.5 21:35:38 10° W 21:37:13 16° WSW 21:37:13 16° WSW visible
15 Sep 4.0 21:07:49 10° WNW 21:10:34 20° SW 21:11:06 19° SW visible
16 Sep 3.9 20:39:59 10° WNW 20:42:57 23° SW 20:45:06 14° S visible
17 Sep 3.8 20:12:09 10° WNW 20:15:17 26° SW 20:18:25 10° S visible
